Regional Weather Roundup
Issued by NWS

Home | Current Version | Previous Version | Text Only | Print | Product List | Glossary Off
Versions: 1 2 3 4 5 6 7 8 9 10 11 12 13 14 15 16 17 18 19 20 21 22 23 24 25 26 27 28 29 30 31 32 33 34 35 36 37 38 39 40 41 42 43 44 45 46 47 48 49 50

000
ASUS43 KBIS 011610
RWRND

NORTH DAKOTA REGIONAL WEATHER ROUNDUP
NATIONAL WEATHER SERVICE BISMARCK ND
1100 AM CDT WED JUL 01 2015

NOTE: "FAIR" INDICATES FEW OR NO CLOUDS BELOW 12,000 FEET WITH NO
SIGNIFICANT WEATHER AND/OR OBSTRUCTIONS TO VISIBILITY.


NDZ001>003-009>011-017-011700-
NORTHWEST NORTH DAKOTA

CITY           SKY/WX    TMP DP  RH WIND       PRES   REMARKS
WILLISTON      CLOUDY    67  58  72 CALM      29.99S
MINOT          CLOUDY    67  62  84 N5        29.95S HAZE
MINOT AFB      CLOUDY    66  66 100 NE5       29.94S FOG
$$

NDZ018>021-031>035-040>046-011700-
SOUTHWEST NORTH DAKOTA

CITY           SKY/WX    TMP DP  RH WIND       PRES   REMARKS
BISMARCK       CLOUDY    69  64  84 E5        29.95S
DICKINSON      CLOUDY    63  59  87 NE5       29.98R FOG
GARRISON         N/A     70  62  76 N5        29.95F
HETTINGER ARPT CLOUDY    64  61  90 NE5       29.99S FOG
$$

NDZ004>008-012>016-024-026-027-054-011700-
NORTHEAST NORTH DAKOTA

CITY           SKY/WX    TMP DP  RH WIND       PRES   REMARKS
GRAND FORKS    SUNNY     74  58  57 W3        29.94S
GRND FRKS AFB  SUNNY     73  61  65 W2        29.95S
DEVILS LAKE    SUNNY     70  57  64 S6        29.96R
$$

NDZ022-023-025-028>030-036>039-047>053-011700-
SOUTHEAST NORTH DAKOTA

CITY           SKY/WX    TMP DP  RH WIND       PRES   REMARKS
FARGO          SUNNY     72  63  73 S8        29.96R
JAMESTOWN      CLOUDY    70  60  70 S7        29.95S
$$




USA.gov is the U.S. government's official web portal to all federal, state and local government web resources and services.